Regional Weather Roundup
Issued by NWS Cleveland, OH

Home | Current Version | Previous Version | Graphics & Text | Print | Product List | Glossary On
Versions: 1 2 3 4 5 6 7 8 9 10 11 12 13 14 15 16 17 18 19 20 21 22 23 24 25 26 27 28 29 30 31 32 33 34 35 36 37 38 39 40 41 42 43 44 45 46 47 48 49 50
000
ASUS41 KCLE 230600
RWRCLE
OHIO REGIONAL WEATHER ROUNDUP
NATIONAL WEATHER SERVICE WILMINGTON, OH
200 AM EDT WED AUG 23 2017

NOTE: "FAIR" INDICATES FEW OR NO CLOUDS BELOW 12,000 FEET WITH NO
SIGNIFICANT WEATHER AND/OR OBSTRUCTIONS TO VISIBILITY.

OHZ001>008-015>018-024>027-034-035-043-044-230700-
   NORTHWEST OHIO

CITY           SKY/WX    TMP DP  RH WIND       PRES   REMARKS
DEFIANCE       FAIR      57  53  86 SW3       29.97R
FINDLAY        FAIR      58  53  84 W6        29.96R
TOLEDO EXPRESS FAIR      59  55  87 W6        29.95R
TOLEDO EXEC    FAIR      60  55  83 W6        29.95R
LIMA           FAIR      59  56  89 NW5       29.98R
$$

OHZ009>014-019>023-028>033-038-089-230700-
   NORTHEAST OHIO

CITY           SKY/WX    TMP DP  RH WIND       PRES   REMARKS
CLE-HOPKINS    MOCLDY    66  58  75 NW8       29.93R
CLE-LAKEFRONT  CLOUDY    71  55  56 NW14      29.90R
CUY CO. ARPT   NOT AVBL
LORAIN-ELYRIA  FAIR      66  49  54 N8        29.93R
ASHTABULA      CLOUDY    66  56  70 NW3       29.91R
AKRON-CANTON   MOCLDY    66  63  90 W5        29.92R
WOOSTER        NOT AVBL
MANSFIELD      FAIR      61  58  90 W7        29.95R
YOUNGSTOWN     MOCLDY    64  63  96 CALM      29.90R
$$

OHZ042-051>053-060>062-070>072-077>081-230700-
  SOUTHWEST OHIO

CITY           SKY/WX    TMP DP  RH WIND       PRES   REMARKS
CINC-COVINGTON MOCLDY    70  66  87 NW7       29.98R
CINC-LUNKEN    CLOUDY    72  66  81 NW5       29.97R
HAMILTON       MOCLDY    70  64  81 NW7       29.99R
DAYTON         NOT AVBL
WRIGHT-PAT AFB FAIR      66  60  80 N6        29.97R
DAYTON GENERAL MOCLDY    68  59  73 N9        29.98R
WILMINGTON     FAIR      67  63  87 N10       29.97R
$$

OHZ036-037-039>041-045>050-054>059-063>069-073>076-082>088-230700-
  CENTRAL AND SOUTHEAST OHIO

CITY           SKY/WX    TMP DP  RH WIND       PRES   REMARKS
COLUMBUS       FAIR      68  60  75 N7        29.94R
OSU AIRPORT    FAIR      66  59  78 NW10      29.95S
BOLTON FIELD   NOT AVBL
RICKENBACK AFB NOT AVBL
NEWARK         FAIR      68  59  73 N7        29.94R
MARION         FAIR      61  56  83 NW8       29.96S
LANCASTER      MOCLDY    68  63  84 N6        29.95R
ZANESVILLE     CLOUDY    70  64  81 W6        29.93R
NEW PHILLY     CLOUDY    69  64  84 NW7       29.92R
$$




USA.gov is the U.S. government's official web portal to all federal, state and local government web resources and services.